EN

Hourly Weather Lagutevskiy

Today, 4 August, Wednesday

Time Temperature Precipitation Wind Pressure Humidity
00:00 +25°C° 0.1 mm 4 mps 754 mmHg 67%
01:00 +25°C° 0 mm 3 mps 754 mmHg 69%
02:00 +24°C° 0 mm 3 mps 754 mmHg 72%
03:00 +24°C° 0 mm 3 mps 754 mmHg 74%
04:00 +24°C° 0 mm 3 mps 754 mmHg 76%
05:00 +24°C° 0 mm 3 mps 755 mmHg 77%
06:00 +24°C° 0 mm 3 mps 755 mmHg 79%
07:00 +25°C° 0 mm 3 mps 755 mmHg 70%
08:00 +27°C° 0 mm 3 mps 755 mmHg 62%
09:00 +29°C° 0 mm 4 mps 755 mmHg 53%
10:00 +30°C° 0 mm 4 mps 755 mmHg 49%
11:00 +32°C° 0 mm 4 mps 755 mmHg 44%
12:00 +33°C° 0 mm 4 mps 755 mmHg 40%
13:00 +33°C° 0 mm 4 mps 755 mmHg 36%
14:00 +34°C° 0 mm 4 mps 755 mmHg 33%
15:00 +35°C° 0 mm 3 mps 755 mmHg 29%
16:00 +34°C° 0 mm 4 mps 755 mmHg 28%
17:00 +34°C° 0 mm 5 mps 755 mmHg 27%
18:00 +34°C° 0 mm 5 mps 755 mmHg 27%
19:00 +32°C° 0 mm 4 mps 755 mmHg 31%
20:00 +28°C° 0 mm 4 mps 756 mmHg 35%
21:00 +26°C° 0 mm 3 mps 756 mmHg 39%
22:00 +26°C° 0 mm 3 mps 756 mmHg 43%
23:00 +25°C° 0 mm 3 mps 756 mmHg 48%

Tomorrow, 5 August, Thursday

Time Temperature Precipitation Wind Pressure Humidity
00:00 +24°C° 0 mm 3 mps 756 mmHg 52%
01:00 +22°C° 0 mm 3 mps 756 mmHg 54%
02:00 +22°C° 0 mm 3 mps 757 mmHg 57%
03:00 +21°C° 0 mm 3 mps 757 mmHg 60%
04:00 +21°C° 0 mm 3 mps 757 mmHg 60%
05:00 +21°C° 0 mm 3 mps 757 mmHg 60%
06:00 +23°C° 0 mm 2 mps 757 mmHg 60%
07:00 +25°C° 0 mm 3 mps 757 mmHg 53%
08:00 +27°C° 0 mm 3 mps 757 mmHg 45%
09:00 +29°C° 0 mm 3 mps 757 mmHg 38%
10:00 +30°C° 0 mm 3 mps 757 mmHg 33%
11:00 +33°C° 0 mm 3 mps 757 mmHg 28%
12:00 +34°C° 0 mm 3 mps 757 mmHg 23%
13:00 +34°C° 0 mm 3 mps 756 mmHg 22%
14:00 +35°C° 0 mm 2 mps 756 mmHg 21%
15:00 +35°C° 0 mm 2 mps 756 mmHg 20%
16:00 +35°C° 0 mm 2 mps 756 mmHg 20%
17:00 +35°C° 0 mm 3 mps 756 mmHg 20%
18:00 +34°C° 0 mm 3 mps 755 mmHg 21%
19:00 +31°C° 0 mm 3 mps 755 mmHg 24%
20:00 +29°C° 0 mm 3 mps 755 mmHg 28%
21:00 +27°C° 0 mm 4 mps 755 mmHg 31%
22:00 +27°C° 0 mm 4 mps 755 mmHg 33%
23:00 +26°C° 0 mm 4 mps 755 mmHg 34%

Day after tomorrow, 6 August, Friday

Time Temperature Precipitation Wind Pressure Humidity
00:00 +26°C° 0 mm 5 mps 755 mmHg 35%
01:00 +25°C° 0 mm 4 mps 755 mmHg 37%
02:00 +23°C° 0 mm 4 mps 755 mmHg 38%
03:00 +22°C° 0 mm 4 mps 755 mmHg 40%
04:00 +24°C° 0 mm 3 mps 755 mmHg 41%
05:00 +24°C° 0 mm 3 mps 755 mmHg 42%
06:00 +24°C° 0 mm 3 mps 755 mmHg 43%
07:00 +27°C° 0 mm 4 mps 755 mmHg 38%
08:00 +29°C° 0 mm 5 mps 755 mmHg 32%
09:00 +33°C° 0 mm 6 mps 755 mmHg 27%
10:00 +34°C° 0 mm 5 mps 755 mmHg 25%
11:00 +36°C° 0 mm 5 mps 754 mmHg 23%
12:00 +37°C° 0 mm 5 mps 754 mmHg 21%
13:00 +37°C° 0 mm 5 mps 754 mmHg 20%
14:00 +39°C° 0 mm 5 mps 753 mmHg 19%
15:00 +39°C° 0 mm 5 mps 753 mmHg 19%
16:00 +39°C° 0 mm 5 mps 752 mmHg 19%
17:00 +39°C° 0 mm 5 mps 752 mmHg 19%
18:00 +37°C° 0 mm 5 mps 752 mmHg 19%
19:00 +35°C° 0 mm 4 mps 752 mmHg 22%
20:00 +33°C° 0 mm 4 mps 752 mmHg 25%
21:00 +30°C° 0 mm 4 mps 752 mmHg 28%
22:00 +30°C° 0 mm 5 mps 752 mmHg 28%
23:00 +30°C° 0 mm 6 mps 752 mmHg 29%

7 August, Saturday

Time Temperature Precipitation Wind Pressure Humidity
00:00 +29°C° 0 mm 6 mps 752 mmHg 29%
01:00 +29°C° 0 mm 6 mps 752 mmHg 28%
02:00 +29°C° 0 mm 6 mps 752 mmHg 28%
03:00 +29°C° 0 mm 6 mps 752 mmHg 27%
04:00 +29°C° 0 mm 6 mps 753 mmHg 27%
05:00 +28°C° 0 mm 6 mps 753 mmHg 27%
06:00 +28°C° 0 mm 6 mps 753 mmHg 27%
07:00 +29°C° 0 mm 7 mps 753 mmHg 24%
08:00 +32°C° 0 mm 8 mps 753 mmHg 21%
09:00 +34°C° 0 mm 9 mps 753 mmHg 18%
10:00 +35°C° 0 mm 9 mps 753 mmHg 17%
11:00 +37°C° 0 mm 8 mps 753 mmHg 17%
12:00 +38°C° 0 mm 8 mps 752 mmHg 16%
13:00 +39°C° 0 mm 8 mps 752 mmHg 16%
14:00 +40°C° 0 mm 7 mps 752 mmHg 15%
15:00 +40°C° 0 mm 7 mps 752 mmHg 15%
16:00 +40°C° 0 mm 7 mps 752 mmHg 16%
17:00 +39°C° 0 mm 6 mps 752 mmHg 16%
18:00 +39°C° 0 mm 6 mps 751 mmHg 17%
19:00 +38°C° 0 mm 6 mps 751 mmHg 17%
20:00 +35°C° 0 mm 6 mps 751 mmHg 17%
21:00 +34°C° 0 mm 7 mps 752 mmHg 18%
22:00 +34°C° 0 mm 7 mps 752 mmHg 18%
23:00 +34°C° 0 mm 7 mps 752 mmHg 18%

8 August, Sunday

Time Temperature Precipitation Wind Pressure Humidity
00:00 +34°C° 0 mm 8 mps 752 mmHg 18%
01:00 +33°C° 0 mm 7 mps 752 mmHg 19%
02:00 +33°C° 0 mm 6 mps 752 mmHg 20%
03:00 +32°C° 0 mm 6 mps 752 mmHg 22%
04:00 +30°C° 0.1 mm 5 mps 752 mmHg 25%
05:00 +30°C° 0.1 mm 5 mps 752 mmHg 28%
06:00 +29°C° 0.1 mm 4 mps 752 mmHg 32%
07:00 +30°C° 0.1 mm 5 mps 752 mmHg 32%
08:00 +32°C° 0.1 mm 5 mps 752 mmHg 32%
09:00 +34°C° 0.1 mm 5 mps 752 mmHg 33%
10:00 +35°C° 0 mm 6 mps 752 mmHg 29%
11:00 +38°C° 0 mm 6 mps 753 mmHg 25%
12:00 +39°C° 0 mm 7 mps 753 mmHg 21%
13:00 +40°C° 0 mm 6 mps 753 mmHg 20%
14:00 +41°C° 0 mm 5 mps 752 mmHg 19%
15:00 +41°C° 0 mm 4 mps 752 mmHg 18%
16:00 +40°C° 0.3 mm 4 mps 752 mmHg 21%
17:00 +38°C° 0.3 mm 4 mps 752 mmHg 24%
18:00 +37°C° 0.3 mm 4 mps 752 mmHg 27%
19:00 +35°C° 0.4 mm 4 mps 753 mmHg 32%
20:00 +33°C° 0.4 mm 3 mps 753 mmHg 36%
21:00 +29°C° 0.4 mm 3 mps 753 mmHg 41%
22:00 +29°C° 0.3 mm 3 mps 754 mmHg 41%
23:00 +28°C° 0.3 mm 3 mps 754 mmHg 42%

9 August, Monday

Time Temperature Precipitation Wind Pressure Humidity
00:00 +28°C° 0.3 mm 2 mps 754 mmHg 42%
01:00 +27°C° 0 mm 2 mps 754 mmHg 45%
02:00 +27°C° 0 mm 2 mps 754 mmHg 47%
03:00 +26°C° 0 mm 2 mps 754 mmHg 49%
04:00 +26°C° 0 mm 2 mps 754 mmHg 52%
05:00 +26°C° 0 mm 2 mps 755 mmHg 55%
06:00 +26°C° 0 mm 2 mps 755 mmHg 58%
07:00 +28°C° 0 mm 3 mps 755 mmHg 50%
08:00 +30°C° 0 mm 4 mps 755 mmHg 42%
09:00 +34°C° 0 mm 4 mps 755 mmHg 34%
10:00 +35°C° 0 mm 5 mps 755 mmHg 29%
11:00 +37°C° 0 mm 5 mps 755 mmHg 23%
12:00 +40°C° 0 mm 5 mps 755 mmHg 18%
13:00 +40°C° 0 mm 5 mps 755 mmHg 18%
14:00 +39°C° 0 mm 5 mps 755 mmHg 18%
15:00 +39°C° 0 mm 5 mps 755 mmHg 19%
16:00 +38°C° 0 mm 4 mps 755 mmHg 19%
17:00 +38°C° 0 mm 3 mps 755 mmHg 19%
18:00 +38°C° 0 mm 2 mps 754 mmHg 20%
19:00 +36°C° 0 mm 3 mps 755 mmHg 21%
20:00 +35°C° 0 mm 3 mps 755 mmHg 23%
21:00 +33°C° 0 mm 4 mps 755 mmHg 24%
22:00 +33°C° 0 mm 4 mps 755 mmHg 25%
23:00 +33°C° 0 mm 4 mps 755 mmHg 26%
Show more